Regional Weather Roundup
Issued by NWS

Home | Current Version | Previous Version | Graphics & Text | Print | Product List | Glossary On
Versions: 1 2 3 4 5 6 7 8 9 10 11 12 13 14 15 16 17 18 19 20 21 22 23 24 25 26 27 28 29 30 31 32 33 34 35 36 37 38 39 40 41 42 43 44 45 46 47 48 49 50
652
ASUS45 KCYS 231710
RWRWY

WYOMING REGIONAL WEATHER ROUNDUP
NATIONAL WEATHER SERVICE CHEYENNE WY
1100 AM MDT FRI JUN 23 2017

NOTE:  "FAIR" INDICATES FEW OR NO CLOUDS BELOW 12,000 FEET
WITH NO SIGNIFICANT WEATHER AND/OR OBSTRUCTIONS TO VISIBILITY.

WYZ001-231800-
YELLOWSTONE NATIONAL PARK

CITY           SKY/WX    TMP DP  RH WIND       PRES   REMARKS
LK YELLOWSTONE   N/A     49  32  52 E5        30.36F
W YELLOWSTONE  NOT AVBL

$$
WYZ002>013-054>058-071-098>099-231800-
NORTHERN WYOMING

CITY           SKY/WX    TMP DP  RH WIND       PRES   REMARKS
JACKSON        SUNNY     57  36  44 CALM      30.29F
CODY           FAIR      59  24  26 E6        30.31F
GREYBULL       FAIR      66  24  20 N15G22    30.25F
WORLAND        FAIR      62  26  25 VRB3      30.27F
SHERIDAN       FAIR      63  36  36 NW16G25   30.28F
BUFFALO        FAIR      59  33  37 N21G35    30.28F
GILLETTE       FAIR      60  32  34 NW18G26   30.25F
NEWCASTLE      FAIR      57  32  38 NW20G26   30.25S

$$
WYZ014>020-022>026-101>103-231800-
CENTRAL WYOMING

CITY           SKY/WX    TMP DP  RH WIND       PRES   REMARKS
BIG PINEY      FAIR      58  32  37 S12       30.33S
PINEDALE       FAIR      55  30  38 S3        30.34S
DUBOIS         FAIR      52  30  43 CALM      30.33S
LANDER         FAIR      58  33  39 VRB5      30.30S
RIVERTON       FAIR      58  28  32 NE8       30.31S
CASPER         FAIR      61  33  35 N8G18     30.29F
DOUGLAS        FAIR      62  38  40 NW10      30.28F

$$
WYZ021-027>030-104>119-231800-
SOUTHERN WYOMING

CITY           SKY/WX    TMP DP  RH WIND       PRES   REMARKS
EVANSTON       FAIR      62  35  36 MISG      30.32R
KEMMERER         N/A     61  30  31 SW5       30.33S
FORT BRIDGER   FAIR      62  32  32 CALM      30.34S
ROCK SPRINGS   FAIR      61  30  31 NE7       30.30F
DIXON          FAIR      66  36  33 W6        30.29S
RAWLINS        FAIR      60  33  36 CALM      30.30S
SARATOGA       FAIR      63  36  36 N9        30.30R
LARAMIE        FAIR      57  38  48 SE9       30.29F
CHEYENNE       CLOUDY    57  37  47 VRB5      30.30F
TORRINGTON     FAIR      63  35  35 NW9G18    30.24F
PINE BLUFFS    CLOUDY    55  37  50 NW3       30.29F

$$




USA.gov is the U.S. government's official web portal to all federal, state and local government web resources and services.